TimeCDT,TemperatureF,Dew PointF,Humidity,Sea Level PressureIn,VisibilityMPH,Wind Direction,Wind SpeedMPH,Gust SpeedMPH,PrecipitationIn,Events,Conditions,WindDirDegrees,DateUTC
12:15 AM,70.0,67.1,91,30.00,10.0,SW,4.6,-,N/A,,Overcast,230,2013-09-12 05:15:00
12:35 AM,70.2,67.8,92,30.01,10.0,WSW,5.8,-,N/A,Rain,Rain,240,2013-09-12 05:35:00
12:55 AM,70.2,68.5,95,30.00,10.0,WSW,6.9,-,N/A,,Light Drizzle,250,2013-09-12 05:55:00
1:15 AM,70.5,68.9,95,30.00,10.0,WSW,6.9,-,N/A,Rain,Light Rain,250,2013-09-12 06:15:00
1:35 AM,70.0,69.1,97,29.99,10.0,SW,4.6,-,0.01,,Overcast,230,2013-09-12 06:35:00
1:55 AM,69.4,68.9,98,29.99,10.0,WSW,4.6,-,0.01,,Scattered Clouds,250,2013-09-12 06:55:00
2:15 AM,69.4,69.1,99,29.99,10.0,West,4.6,-,N/A,,Mostly Cloudy,260,2013-09-12 07:15:00
2:35 AM,69.3,68.9,99,29.98,10.0,West,3.5,-,N/A,,Scattered Clouds,260,2013-09-12 07:35:00
2:55 AM,68.2,68.2,100,29.97,10.0,Calm,Calm,-,N/A,,Clear,0,2013-09-12 07:55:00
3:15 AM,68.0,68.0,100,29.97,10.0,Calm,Calm,-,N/A,,Clear,0,2013-09-12 08:15:00
3:35 AM,67.8,67.8,100,29.97,10.0,WSW,3.5,-,N/A,,Clear,250,2013-09-12 08:35:00
3:55 AM,66.6,66.6,100,29.97,7.0,SW,4.6,-,N/A,,Clear,230,2013-09-12 08:55:00
4:15 AM,67.8,67.8,100,29.98,7.0,West,4.6,-,N/A,,Scattered Clouds,280,2013-09-12 09:15:00
4:35 AM,68.2,68.2,100,29.98,10.0,Calm,Calm,-,N/A,,Clear,0,2013-09-12 09:35:00
4:55 AM,68.9,68.9,100,29.98,10.0,WNW,3.5,-,N/A,,Clear,290,2013-09-12 09:55:00
5:15 AM,68.9,68.9,100,29.98,7.0,West,4.6,-,N/A,,Clear,280,2013-09-12 10:15:00
5:35 AM,68.9,68.9,100,29.99,7.0,WNW,3.5,-,N/A,,Clear,300,2013-09-12 10:35:00
5:55 AM,68.4,68.4,100,29.99,10.0,NW,5.8,-,N/A,,Scattered Clouds,320,2013-09-12 10:55:00
6:15 AM,68.0,67.8,99,29.99,10.0,NNW,6.9,-,N/A,,Scattered Clouds,330,2013-09-12 11:15:00
6:35 AM,67.6,65.7,93,30.00,10.0,NNW,6.9,-,N/A,,Clear,340,2013-09-12 11:35:00
6:55 AM,66.7,64.4,92,29.99,10.0,NNW,4.6,-,N/A,,Clear,340,2013-09-12 11:55:00
7:15 AM,66.7,63.7,90,30.00,10.0,NNW,4.6,-,N/A,,Clear,340,2013-09-12 12:15:00
7:35 AM,67.5,62.8,85,30.00,10.0,North,5.8,-,N/A,,Clear,360,2013-09-12 12:35:00
7:55 AM,67.8,61.0,79,30.00,10.0,North,5.8,-,N/A,,Clear,350,2013-09-12 12:55:00
8:15 AM,68.4,59.9,74,30.00,10.0,North,4.6,-,N/A,,Clear,350,2013-09-12 13:15:00
8:35 AM,68.5,60.3,75,30.00,10.0,NNW,4.6,-,N/A,,Clear,330,2013-09-12 13:35:00
8:55 AM,70.3,59.0,67,30.01,10.0,North,5.8,-,N/A,,Clear,360,2013-09-12 13:55:00
9:15 AM,71.1,55.6,58,30.00,10.0,North,4.6,-,N/A,,Clear,360,2013-09-12 14:15:00
9:35 AM,71.6,55.9,58,30.01,10.0,North,5.8,-,N/A,,Clear,360,2013-09-12 14:35:00
9:55 AM,72.7,53.6,51,30.00,10.0,NE,4.6,-,N/A,,Clear,50,2013-09-12 14:55:00
10:15 AM,74.5,50.7,43,30.00,10.0,Calm,Calm,-,N/A,,Clear,0,2013-09-12 15:15:00
10:35 AM,75.0,50.4,42,30.00,10.0,Calm,Calm,-,N/A,,Clear,0,2013-09-12 15:35:00
10:55 AM,76.3,51.4,42,30.00,10.0,Calm,Calm,-,N/A,,Scattered Clouds,0,2013-09-12 15:55:00
11:15 AM,76.6,51.4,41,29.99,10.0,Calm,Calm,-,N/A,,Mostly Cloudy,0,2013-09-12 16:15:00
11:35 AM,77.5,49.1,37,29.99,10.0,WNW,8.1,-,N/A,,Mostly Cloudy,300,2013-09-12 16:35:00
11:55 AM,77.9,53.6,43,29.99,10.0,WSW,4.6,-,N/A,,Scattered Clouds,250,2013-09-12 16:55:00
12:15 PM,79.5,54.0,41,29.97,10.0,West,3.5,-,N/A,,Scattered Clouds,260,2013-09-12 17:15:00
12:35 PM,79.7,50.7,36,29.96,10.0,West,5.8,-,N/A,,Scattered Clouds,280,2013-09-12 17:35:00
12:55 PM,80.4,50.5,35,29.96,10.0,WNW,6.9,-,N/A,,Scattered Clouds,290,2013-09-12 17:55:00
1:15 PM,81.3,51.6,36,29.95,10.0,WSW,6.9,-,N/A,,Mostly Cloudy,240,2013-09-12 18:15:00
1:35 PM,80.8,53.6,39,29.94,10.0,SW,6.9,-,N/A,,Mostly Cloudy,220,2013-09-12 18:35:00
1:55 PM,79.5,53.8,41,29.93,10.0,West,9.2,-,N/A,,Mostly Cloudy,280,2013-09-12 18:55:00
2:15 PM,78.4,54.0,43,29.92,10.0,WNW,3.5,-,N/A,,Mostly Cloudy,300,2013-09-12 19:15:00
2:35 PM,77.4,55.0,46,29.92,10.0,North,9.2,-,N/A,,Mostly Cloudy,350,2013-09-12 19:35:00
2:55 PM,77.4,55.0,46,29.91,10.0,North,10.4,18.4,N/A,,Scattered Clouds,350,2013-09-12 19:55:00
3:15 PM,78.4,54.5,43,29.92,10.0,North,16.1,-,N/A,,Scattered Clouds,350,2013-09-12 20:15:00
3:35 PM,77.2,54.9,46,29.92,10.0,North,12.7,18.4,N/A,,Clear,350,2013-09-12 20:35:00
3:55 PM,77.2,54.5,45,29.92,10.0,NNW,13.8,17.3,N/A,,Clear,340,2013-09-12 20:55:00
4:15 PM,76.1,54.3,47,29.92,10.0,North,15.0,-,N/A,,Clear,350,2013-09-12 21:15:00
4:35 PM,74.5,57.6,55,29.93,10.0,North,15.0,20.7,N/A,,Clear,360,2013-09-12 21:35:00
4:55 PM,66.0,61.9,86,29.95,4.0,North,13.8,38.0,0.05,Rain,Light Rain,360,2013-09-12 21:55:00
5:15 PM,66.6,60.6,81,29.96,10.0,North,13.8,23.0,N/A,,Mostly Cloudy,10,2013-09-12 22:15:00
5:35 PM,64.8,59.4,83,29.98,10.0,North,12.7,18.4,N/A,,Light Drizzle,350,2013-09-12 22:35:00
5:55 PM,65.1,59.7,83,29.98,10.0,North,12.7,23.0,N/A,Rain,Light Rain,360,2013-09-12 22:55:00
6:15 PM,64.8,56.8,75,29.98,10.0,North,9.2,-,N/A,,Scattered Clouds,350,2013-09-12 23:15:00
6:35 PM,64.6,57.0,76,29.99,10.0,North,9.2,-,N/A,,Clear,360,2013-09-12 23:35:00
6:55 PM,64.6,56.3,74,29.99,10.0,North,15.0,21.9,N/A,,Clear,360,2013-09-12 23:55:00
7:15 PM,64.0,56.3,76,30.00,10.0,North,13.8,24.2,N/A,,Clear,360,2013-09-13 00:15:00
7:35 PM,63.1,55.4,76,30.01,10.0,North,10.4,-,N/A,,Clear,360,2013-09-13 00:35:00
7:55 PM,63.0,52.9,70,30.02,10.0,North,10.4,-,N/A,,Clear,10,2013-09-13 00:55:00
8:15 PM,62.6,52.0,68,30.02,10.0,North,9.2,-,N/A,,Scattered Clouds,10,2013-09-13 01:15:00
8:35 PM,62.1,52.0,70,30.03,10.0,North,10.4,-,N/A,,Clear,360,2013-09-13 01:35:00
8:55 PM,62.8,50.9,65,30.04,10.0,North,12.7,19.6,N/A,,Clear,10,2013-09-13 01:55:00
9:15 PM,62.4,52.2,69,30.04,10.0,North,11.5,21.9,N/A,,Clear,10,2013-09-13 02:15:00
9:35 PM,62.1,52.9,72,30.04,10.0,North,12.7,18.4,N/A,,Clear,10,2013-09-13 02:35:00
9:55 PM,61.9,52.3,71,30.04,10.0,NNE,15.0,18.4,N/A,,Clear,20,2013-09-13 02:55:00
10:15 PM,61.9,51.8,69,30.04,10.0,NNE,9.2,17.3,N/A,,Clear,30,2013-09-13 03:15:00
10:35 PM,61.0,51.4,71,30.04,10.0,North,8.1,-,N/A,,Clear,10,2013-09-13 03:35:00
10:55 PM,60.8,50.2,68,30.06,10.0,North,12.7,18.4,N/A,,Scattered Clouds,10,2013-09-13 03:55:00
11:15 PM,60.8,49.8,67,30.06,10.0,NNE,11.5,16.1,N/A,,Scattered Clouds,20,2013-09-13 04:15:00
11:35 PM,60.8,50.0,68,30.07,10.0,NNE,10.4,16.1,N/A,,Mostly Cloudy,20,2013-09-13 04:35:00
11:55 PM,60.1,49.8,69,30.07,10.0,NNE,6.9,-,N/A,,Mostly Cloudy,20,2013-09-13 04:55:00